Ras Al Khaimah International Airport
OMRK : now visible

Airfield :











YOU CAN JOIN US ON...

 
LOGIN :

Register | Disclaimer

   EN    FR    IT 

 









Legend :    VFR   Marginal VFR   IFR   Intensive IFR   Very Intensive IFR
Visi :
Ceiling :
>= 8 km
>= 3000ft
5 to 8 km
1000 to 3000 ft
1500m to 5 km
500 to 1000 ft
800 to 1500m
200 to 500 ft
< 800m
< 200 ft
Symbols :   Thunderstorms  Fog  Heavy snow  Heavy precipitations  Wind > 20 kt







- Airport Elevation : 102 ft
- IATA code : RKT


OMRK - Ras Al Khaimah International

CURRENT METAR :
  • 171500Z 31003KT CAVOK 38/18 Q0998 A2947

EXPIRED METARs :
  • 171400Z 31007KT CAVOK 41/13 Q0997 A2946
  • 171300Z 33009KT CAVOK 41/12 Q0997 A2946

TAF TAF OMRK
Valid from the 17 at 12:00 until the 18 at 18:00 UTC


171101Z 1712/1818 32011KT 8000 NSC
BECMG 1715/1717 VRB02KT
PROB30 1722/1804 3000 BR BKN008
BECMG 1806/1808 32012KT
BECMG 1815/1817 VRB02KT
OMAE FIR / Asia



MET'MAP, your aeronautical weather chart ! - Copyright ORBIFLY December 2007 - Disclaimer

ORBIFLY MET'MAP TEAM :

Programming & Development : Alexandra Zaïnal
Concept & Development : Baudouin d'Aumeries
Co-Development & Prog : Marc-Olivier Méhu
Technical & hardware support : Manuel Goepfert

Contact : metmap@orbifly.com




SOURCES & CREDITS :

   NOAA       Earth
Advisory